Погода в Кочетовке

Россия / Белгородская область     51°01′43″N   36°25′53″E
темп.,
°C
ветер,
м/с
пор.,
м/с
влажн.,
%
обл.,
%
осадки,
мм/ч
давл.,
гПа
погр.,
м
17 апреля, сб
сб1700:00+6ю348866 0.0 101870
03:00+5юв229398 0.3 101839
06:00+5юв3492100 0.0 101876
09:00+8ююз457778 0.2 1018556
12:00+11ююз54526 0.2 10181614
15:00+9юз665983 0.3 10181027
18:00+8юз566847 0.0 1018727
21:00+6юз468577 0.1 1019484
18 апреля, вс
вс1800:00+5ююз3691100 0.3 1019307
03:00+5ююз368899 0.5 1019233
06:00+4ююз359030 0.1 1019104
09:00+7ююз4581100 0.2 1019531
12:00+8ююз5663100 0.3 10191103
15:00+9ю3466100 0.3 1019982
18:00+9юв2472100 0.1 1018552
21:00+7в3783100 0.4 1018130
19 апреля, пн
пн1900:00+8юв4117994 0.5 1017377
03:00+6юв51187100 1.8 1017280
06:00+5в359496 1.3 1016128
09:00+10вюв577233 2.1 1016539
12:00+13ююв565417 1.4 10151509
15:00+13юв666190 3.3 10151148
18:00+11вюв687387 0.8 1014745
21:00+7в488994 0.8 1014213
20 апреля, вт
вт2000:00+7в369351 0.0 1013137
03:00+8в4990100 0.1 1011431
06:00+8всв5994100 0.0 1008529
09:00+9всв51093100 0.4 1005581
12:00+9св81495100 4.3 1000637
15:00+11в91696100 17.1 9941048
18:00+10ю7118958 6.3 995746
21:00+9ю81593100 7.1 995589
21 апреля, ср
ср2100:00+8ююв81491100 0.7 996514
03:00+4зюз71196100 3.0 1001770
06:00+6зюз81290100 0.1 10051058
09:00+7зюз61376100 0.2 10091467
12:00+10юз81167100 0.3 10111401
15:00+11юз71063100 0.5 10121415
18:00+10юз6868100 0.3 1014908
21:00+7ююз39835 0.4 1016174